DELTA 1 DEB, 10713

Orbit data source: Space-Track

DELTA 1 DEB, 10713 is space debris in SSO originally from a launch on Thu, 29 Jul 1976 UTC launched from the Air Force Western Test Range (AFWTR). Debris objects in space refer to the collection of defunct objects orbiting the Earth. Examples of debris include non-operational satellites, rocket bodies, and fragments generated from explosions, collisions, or faulty payload assembly.

Loading next visibility...
Identifier
10713, 1976-077AJ
Orbit
SSO
Country
Flag of USUS
Related business
Manufacturer
Unknown
Mission
Spacecraft
Bus & Motor
Unknown
Mass
Unknown
Launch date (UTC)
1976-07-29 (50 years ago)
Launch vehicle
Unknown
Launch site
Air Force Western Test Range (AFWTR)
Object type
Payload
Rocket body
Debris
Shape & HBR
Unknown shape, 1.1 m
Radar Cross Section
Medium (>0.1 m² and <1 m²)

Expand to show TLE details & history
Last TLE update: 9 hours ago

TLE from 9 hours ago
0 DELTA 1 DEB
1 10713U 76077AJ  26256.04534124  .00001770  00000-0  51815-2 0  9990
2 10713 101.5585  96.0006 0126444  60.5084  91.1206 13.08037342339065
Epoch: 2026-09-13T01:05Z
TLE epoch observation values (Epoch: 2026-09-13T01:05:17.483Z)
Latitude
26.36997°
Longitude
-86.57815°
Altitude
1,236.84 km
Speed
7.237 km/s
True Right ascension
18h 47m 09s
True Declination
26° 14' 31"
Sunlit
Object was in daylight at epoch
Visualization orbit readout
Latitude
Unknown
Longitude
Unknown
Altitude
Unknown
Speed
Unknown
Apparent Right ascension
Unknown
Apparent Declination
Unknown
Sunlit
N/A
Visualization observer readout
Local Sidereal Time
02:29:40
Azimuth
Unknown
Elevation
Unknown
Doppler factor
Unknown
Orbital elements
Apogee altitude
1,324.398 km
Perigee altitude
1,132.042 km
Semi-major axis
7,606.357 km
Eccentricity
0.01264
Inclination
101.5585°
RAAN
96.0006°
Arg. of periapsis
60.5084°
True anomaly
92.56866°
Mean anomaly
91.1206°
Eccentric anomaly
91.8447°
Mean motion
3.27174 °/min
Orbital period
110.03 mins
BSTAR
0.0051815
Loading maneuver chart data...
Computing Atmospheric mass density...
Loading historical data...
Loading historical data...
Loading historical data...
Loading historical data...
Loading historical data...
Loading historical data...
Loading historical data...

Documentation

Showing up to 5 results
|